EW2910 Weather Reports


Display with metric or nautical units.
time (UTC)temp
F
wind
direction
speed
MPH
gust
MPH
rain 1hr
in
rain 24hr
in
rain mn
in
humidity
%
barometer
mb
20260507130113 78 0 1.0 4.0 0.00 0.00 0.00 78 1016.1
20260507124636 76 0 1.0 6.0 0.00 0.00 0.00 81 1016.0
20260507123110 75 115 2.0 5.0 0.00 0.00 0.00 83 1016.2
20260507121605 74 109 1.0 5.0 0.00 0.00 0.00 85 1016.3
20260507120100 73 0 0.0 3.0 0.00 0.00 0.00 86 1016.2
20260507114614 71 108 0.0 0.0 0.00 0.00 0.00 88 1016.0
20260507113058 70 0 0.0 0.0 0.00 0.00 0.00 90 1016.0
20260507111601 69 0 0.0 0.0 0.00 0.00 0.00 91 1015.8
20260507110110 68 0 0.0 0.0 0.00 0.00 0.00 91 1015.5
20260507104600 68 0 0.0 0.0 0.00 0.00 0.00 90 1015.4
20260507103058 68 0 0.0 0.0 0.00 0.00 0.00 89 1015.6
20260507101603 68 0 0.0 0.0 0.00 0.00 0.00 90 1015.4
20260507100100 69 0 0.0 0.0 0.00 0.00 0.00 89 1015.3
20260507094558 69 0 0.0 0.0 0.00 0.00 0.00 88 1015.1
20260507093058 70 0 0.0 0.0 0.00 0.00 0.00 87 1014.9
20260507091601 71 0 1.0 3.0 0.00 0.00 0.00 88 1014.7
20260507090106 71 203 1.0 4.0 0.00 0.00 0.00 88 1014.9
20260507084600 70 214 0.0 1.0 0.00 0.00 0.00 88 1014.8
20260507083057 69 0 0.0 0.0 0.00 0.00 0.00 87 1015.0
20260507081600 69 0 0.0 0.0 0.00 0.00 0.00 86 1014.9
20260507074612 69 0 0.0 0.0 0.00 0.00 0.00 86 1014.5
20260507073102 69 0 0.0 0.0 0.00 0.00 0.00 85 1014.6
20260507071600 69 0 0.0 0.0 0.00 0.00 0.00 85 1014.7
20260507070115 69 0 0.0 0.0 0.00 0.00 0.00 84 1015.0
20260507064610 70 0 0.0 0.0 0.00 0.00 0.00 82 1015.2
20260507063102 71 0 0.0 0.0 0.00 0.00 0.00 81 1015.2
20260507061558 71 0 0.0 0.0 0.00 0.00 0.00 81 1015.3
20260507060057 71 0 0.0 0.0 0.00 0.00 0.00 81 1015.5
20260507054558 71 0 0.0 0.0 0.00 0.00 0.00 79 1015.7
20260507053057 72 0 0.0 0.0 0.00 0.00 0.00 78 1015.6
20260507051602 72 0 0.0 0.0 0.00 0.00 0.00 77 1015.8
20260507044600 74 0 0.0 0.0 0.00 0.00 0.00 75 1016.3
20260507043057 74 0 0.0 0.0 0.00 0.00 0.00 74 1016.5
20260507041558 75 0 0.0 3.0 0.00 0.00 0.00 72 1016.5
20260507040111 75 0 0.0 2.0 0.00 0.00 0.00 72 1016.4
20260507034611 75 0 0.0 3.0 0.00 0.00 0.00 72 1016.3
20260507033104 76 0 0.0 1.0 0.00 0.00 0.00 71 1016.6
20260507031618 77 0 0.0 2.0 0.00 0.00 0.00 68 1016.3
20260507030057 77 107 0.0 3.0 0.00 0.00 0.00 67 1016.4
20260507024600 78 126 0.0 0.0 0.00 0.00 0.00 66 1016.3
20260507023100 79 0 0.0 0.0 0.00 0.00 0.00 64 1016.4
20260507021602 79 0 0.0 4.0 0.00 0.00 0.00 63 1016.4
20260507020059 80 0 0.0 3.0 0.00 0.00 0.00 62 1015.9
20260507014603 80 0 1.0 7.0 0.00 0.00 0.00 61 1016.1
20260507013118 80 0 0.0 4.0 0.00 0.00 0.00 62 1016.2
20260507011610 81 0 2.0 11.0 0.00 0.00 0.00 61 1015.6
20260507010108 81 89 4.0 10.0 0.00 0.00 0.00 61 1015.4
20260507004600 82 112 4.0 11.0 0.00 0.00 0.00 60 1015.2
20260507003100 83 105 3.0 12.0 0.00 0.00 0.00 58 1014.9
20260507001558 85 99 4.0 10.0 0.00 0.00 0.00 55 1014.9
20260507000058 87 0 0.0 0.0 0.00 0.00 0.00 48 1014.6
20260506234558 88 0 0.0 3.0 0.00 0.00 0.00 45 1014.7
20260506233108 89 96 0.0 5.0 0.00 0.00 0.00 44 1014.7
20260506231609 90 91 0.0 4.0 0.00 0.00 0.00 43 1014.7
20260506230105 90 89 1.0 5.0 0.00 0.00 0.00 44 1014.6
20260506224559 91 129 2.0 5.0 0.00 0.00 0.00 44 1014.7
20260506223059 91 0 1.0 5.0 0.00 0.00 0.00 43 1014.7
20260506221601 91 53 1.0 7.0 0.00 0.00 0.00 43 1014.9
20260506220100 92 85 0.0 5.0 0.00 0.00 0.00 43 1014.9
20260506214602 92 0 1.0 7.0 0.00 0.00 0.00 42 1014.9
20260506213058 93 128 0.0 3.0 0.00 0.00 0.00 43 1014.9
20260506211610 92 92 0.0 9.0 0.00 0.00 0.00 44 1014.9
20260506210058 92 70 3.0 8.0 0.00 0.00 0.00 45 1014.8
20260506204558 93 94 2.0 6.0 0.00 0.00 0.00 43 1014.7
20260506203057 94 234 1.0 7.0 0.00 0.00 0.00 41 1014.8
20260506201603 94 131 2.0 6.0 0.00 0.00 0.00 44 1015.1
20260506200058 92 98 2.0 6.0 0.00 0.00 0.00 43 1015.0
20260506194557 93 0 2.0 5.0 0.00 0.00 0.00 42 1015.0
20260506193059 93 0 0.0 4.0 0.00 0.00 0.00 45 1015.4
20260506191600 93 223 0.0 4.0 0.00 0.00 0.00 46 1015.5
20260506190059 92 99 3.0 8.0 0.00 0.00 0.00 45 1015.8
20260506184622 92 83 1.0 12.0 0.00 0.00 0.00 44 1015.9
20260506183100 91 71 3.0 8.0 0.00 0.00 0.00 46 1016.1
20260506181600 92 103 2.0 7.0 0.00 0.00 0.00 46 1016.1
20260506180057 91 0 1.0 9.0 0.00 0.00 0.00 47 1016.2
20260506174600 92 228 1.0 5.0 0.00 0.00 0.00 46 1016.4
20260506173112 90 203 2.0 10.0 0.00 0.00 0.00 49 1016.6
20260506171609 88 95 3.0 8.0 0.00 0.00 0.00 51 1016.8
20260506164623 88 240 4.0 8.0 0.00 0.00 0.00 51 1017.0
20260506163105 87 0 2.0 10.0 0.00 0.00 0.00 52 1017.2
20260506161601 88 87 2.0 9.0 0.00 0.00 0.00 52 1017.3
20260506160110 87 113 3.0 12.0 0.00 0.00 0.00 55 1017.2
20260506154558 86 99 3.0 12.0 0.00 0.00 0.00 54 1017.5
20260506153102 85 98 4.0 12.0 0.00 0.00 0.00 55 1017.4
20260506151558 85 149 3.0 10.0 0.00 0.00 0.00 59 1017.4
20260506150100 84 88 4.0 12.0 0.00 0.00 0.00 62 1017.3
20260506144600 83 233 3.0 11.0 0.00 0.00 0.00 65 1017.3
20260506143101 81 255 3.0 10.0 0.00 0.00 0.00 69 1017.4
20260506141611 81 82 3.0 8.0 0.00 0.00 0.00 71 1017.4
20260506140101 79 94 4.0 9.0 0.00 0.00 0.00 77 1017.3
20260506134601 78 98 4.0 10.0 0.00 0.00 0.00 79 1017.4
20260506133107 77 90 3.0 8.0 0.00 0.00 0.00 82 1017.3
20260506131557 77 216 3.0 8.0 0.00 0.00 0.00 83 1017.2